Жовтень

Украина / Ивано-Франковская область     49°02′19″N   24°45′34″E
темп.,
°C
ветер,
м/с
пор.,
м/с
влажн.,
%
обл.,
%
осадки,
мм/ч
давл.,
гПа
погр.,
м
19 мая, ср
ср1900:00+10зсз81594100 2.1 1006732
03:00+10зсз81592100 2.4 1007830
06:00+10зсз91591100 0.3 1008831
09:00+10зсз81488100 0.3 1009924
12:00+10сз71389100 0.5 1011804
15:00+15сз7106713 0.8 10101363
18:00+15сз68712 0.1 10101208
21:00+10с229062 0.1 101122
20 мая, чт
чт2000:00+7зюз119151 0.0 101210
03:00+7с009296 0.0 101210
06:00+6зсз1193100 0.0 101210
09:00+11ссз3584100 0.0 1012455
12:00+13с4569100 0.2 10121251
15:00+14ссв4671100 0.4 10121126
18:00+13с5882100 1.6 1012463
21:00+10ссз3990100 2.6 1014234
21 мая, пт
пт2100:00+9сз3591100 0.0 1015110
03:00+8сз3792100 0.0 1016199
06:00+8зсз4793100 0.0 1018213
09:00+10сз458599 0.0 1019326
12:00+15ссз336411 0.0 10181252
15:00+17ссв225298 0.3 10171936
18:00+17всв225424 0.0 1017800
21:00+12юв22730 0.0 101814
22 мая, сб
сб2200:00+9ююв22805 0.0 101721
03:00+8юв22909 0.0 101720
06:00+7ююв239196 0.0 101748
09:00+13юв457328 0.0 1016304
12:00+18юв4560100 0.0 1014829
15:00+20юв5658100 0.0 10131017
18:00+19юв6970100 0.0 1011564
21:00+14ююв3588100 0.1 101290
23 мая, вс
вс2300:00+13ююз1182100 0.1 101214
03:00+12ююз2376100 0.1 101030
06:00+11сз2380100 0.0 101150
09:00+11сз3696100 0.4 1013397
12:00+11сз4592100 0.6 1013424
15:00+11зсз2493100 3.3 1014297
18:00+10зюз2492100 0.6 1014159
21:00+10зсз228563 0.6 101516